| time (UTC) | temp C | wind direction | speed KPH | gust KPH | rain 1hr cm | rain 24hr cm | rain mn cm | humidity % | barometer mb |
| 20260504130115 | 13 | 202 | 8.0 | 14.5 | 0.00 | 0.00 | 0.00 | 67 | 1013.9 |
| 20260504120117 | 11 | 200 | 6.4 | 16.1 | 0.00 | 0.00 | 0.00 | 76 | 1014.1 |
| 20260504110612 | 7 | 210 | 6.4 | 9.7 | 0.00 | 0.00 | 0.00 | 81 | 1014.2 |
| 20260504110113 | 7 | 207 | 3.2 | 8.0 | 0.00 | 0.00 | 0.00 | 82 | 1014.3 |
| 20260504100612 | 6 | 196 | 1.6 | 6.4 | 0.00 | 0.00 | 0.00 | 81 | 1014.4 |
| 20260504100418 | 6 | 204 | 3.2 | 6.4 | 0.00 | 0.00 | 0.00 | 81 | 1014.4 |
| 20260504081607 | 7 | 251 | 3.2 | 8.0 | 0.00 | 0.00 | 0.00 | 71 | 1014.3 |
| 20260504081106 | 7 | 241 | 3.2 | 8.0 | 0.00 | 0.00 | 0.00 | 71 | 1014.3 |
| 20260504080604 | 7 | 213 | 3.2 | 8.0 | 0.00 | 0.00 | 0.00 | 70 | 1014.3 |
| 20260504080104 | 8 | 240 | 3.2 | 8.0 | 0.00 | 0.00 | 0.00 | 70 | 1014.3 |
| 20260504045531 | 8 | 282 | 1.6 | 6.4 | 0.00 | 0.00 | 0.00 | 54 | 1014.3 |
| 20260504045033 | 8 | 252 | 3.2 | 6.4 | 0.00 | 0.00 | 0.00 | 55 | 1014.3 |
| 20260504044531 | 8 | 243 | 3.2 | 6.4 | 0.00 | 0.00 | 0.00 | 55 | 1014.3 |
| 20260504044033 | 8 | 248 | 1.6 | 4.8 | 0.00 | 0.00 | 0.00 | 56 | 1014.2 |
| 20260504043529 | 8 | 247 | 1.6 | 4.8 | 0.00 | 0.00 | 0.00 | 54 | 1014.3 |
| 20260504043028 | 8 | 245 | 0.0 | 3.2 | 0.00 | 0.00 | 0.00 | 54 | 1014.2 |
| 20260504042529 | 8 | 254 | 0.0 | 4.8 | 0.00 | 0.00 | 0.00 | 54 | 1014.0 |
| 20260504042028 | 8 | 227 | 1.6 | 8.0 | 0.00 | 0.00 | 0.00 | 54 | 1014.0 |
| 20260504041523 | 8 | 247 | 3.2 | 8.0 | 0.00 | 0.00 | 0.00 | 54 | 1014.0 |
| 20260504041024 | 8 | 240 | 3.2 | 6.4 | 0.00 | 0.00 | 0.00 | 54 | 1014.0 |
| 20260504040506 | 8 | 285 | 1.6 | 4.8 | 0.00 | 0.00 | 0.00 | 54 | 1013.9 |
| 20260504040005 | 8 | 250 | 0.0 | 8.0 | 0.00 | 0.00 | 0.00 | 53 | 1014.0 |
| 20260504035505 | 8 | 251 | 1.6 | 8.0 | 0.00 | 0.00 | 0.00 | 53 | 1013.9 |
| 20260504035005 | 8 | 252 | 1.6 | 4.8 | 0.00 | 0.00 | 0.00 | 53 | 1013.9 |
| 20260504034832 | 8 | 240 | 1.6 | 4.8 | 0.00 | 0.00 | 0.00 | 53 | 1013.7 |
| 20260504034824 | 8 | 235 | 1.6 | 8.0 | 0.00 | 0.00 | 0.00 | 53 | 1013.7 |
| 20260504034710 | 8 | 248 | 1.6 | 4.8 | 0.00 | 0.00 | 0.00 | 53 | 1013.7 |
| 20260504033002 | 8 | 243 | 3.2 | 8.0 | 0.00 | 0.00 | 0.00 | 53 | 1013.7 |
| 20260504032501 | 8 | 244 | 1.6 | 4.8 | 0.00 | 0.00 | 0.00 | 54 | 1013.7 |
| 20260504032003 | 8 | 248 | 1.6 | 4.8 | 0.00 | 0.00 | 0.00 | 53 | 1013.6 |
| 20260504031810 | 8 | 282 | 1.6 | 4.8 | 0.00 | 0.00 | 0.00 | 53 | 1013.6 |
| 20260504031317 | 8 | 250 | 0.0 | 4.8 | 0.00 | 0.00 | 0.00 | 54 | 1013.6 |
| 20260504030502 | 9 | 248 | 1.6 | 4.8 | 0.00 | 0.00 | 0.00 | 53 | 1013.6 |
| 20260504030001 | 9 | 243 | 0.0 | 0.0 | 0.00 | 0.00 | 0.00 | 53 | 1013.6 |
| 20260504025501 | 9 | 243 | 0.0 | 4.8 | 0.00 | 0.00 | 0.00 | 52 | 1013.6 |
| 20260504025001 | 9 | 250 | 0.0 | 4.8 | 0.00 | 0.00 | 0.00 | 52 | 1013.6 |
| 20260504024502 | 9 | 251 | 3.2 | 4.8 | 0.00 | 0.00 | 0.00 | 51 | 1013.6 |
| 20260504024328 | 9 | 274 | 0.0 | 4.8 | 0.00 | 0.00 | 0.00 | 52 | 1013.6 |
| 20260504023502 | 9 | 230 | 3.2 | 4.8 | 0.00 | 0.00 | 0.00 | 52 | 1013.7 |
| 20260504023323 | 9 | 221 | 3.2 | 6.4 | 0.00 | 0.00 | 0.00 | 50 | 1013.7 |
| 20260504022811 | 10 | 272 | 3.2 | 6.4 | 0.00 | 0.00 | 0.00 | 51 | 1013.7 |
| 20260504022001 | 10 | 279 | 1.6 | 4.8 | 0.00 | 0.00 | 0.00 | 51 | 1013.6 |
| 20260504021500 | 10 | 271 | 1.6 | 6.4 | 0.00 | 0.00 | 0.00 | 51 | 1013.7 |
| 20260504021001 | 10 | 230 | 4.8 | 6.4 | 0.00 | 0.00 | 0.00 | 50 | 1013.7 |
| 20260504020459 | 9 | 269 | 0.0 | 0.0 | 0.00 | 0.00 | 0.00 | 51 | 1013.7 |
| 20260504020132 | 9 | 276 | 0.0 | 4.8 | 0.00 | 0.00 | 0.00 | 51 | 1013.6 |
| 20260504020100 | 9 | 269 | 0.0 | 4.8 | 0.00 | 0.00 | 0.00 | 51 | 1013.6 |
| 20260504014957 | 10 | 248 | 1.6 | 4.8 | 0.00 | 0.00 | 0.00 | 50 | 1013.6 |
| 20260504014457 | 10 | 244 | 1.6 | 4.8 | 0.00 | 0.00 | 0.00 | 50 | 1013.5 |
| 20260504013958 | 10 | 282 | 0.0 | 3.2 | 0.00 | 0.00 | 0.00 | 50 | 1013.5 |
| 20260504013458 | 10 | 252 | 0.0 | 3.2 | 0.00 | 0.00 | 0.00 | 50 | 1013.5 |
| 20260504012957 | 10 | 245 | 1.6 | 3.2 | 0.00 | 0.00 | 0.00 | 50 | 1013.5 |
| 20260504012458 | 10 | 250 | 1.6 | 4.8 | 0.00 | 0.00 | 0.00 | 49 | 1013.4 |
| 20260504012141 | 10 | 266 | 1.6 | 6.4 | 0.00 | 0.00 | 0.00 | 47 | 1013.2 |
| 20260504012054 | 10 | 244 | 0.0 | 4.8 | 0.00 | 0.00 | 0.00 | 48 | 1013.3 |
| 20260504011320 | 10 | 224 | 3.2 | 6.4 | 0.00 | 0.00 | 0.00 | 47 | 1013.2 |
| 20260504010457 | 11 | 250 | 3.2 | 8.0 | 0.00 | 0.00 | 0.00 | 47 | 1013.2 |
| 20260504005957 | 11 | 298 | 3.2 | 8.0 | 0.00 | 0.00 | 0.00 | 46 | 1013.0 |
| 20260504005456 | 11 | 271 | 1.6 | 6.4 | 0.00 | 0.00 | 0.00 | 46 | 1013.0 |
| 20260504004956 | 11 | 271 | 1.6 | 6.4 | 0.00 | 0.00 | 0.00 | 45 | 1013.0 |
| 20260504004818 | 11 | 272 | 1.6 | 6.4 | 0.00 | 0.00 | 0.00 | 45 | 1013.0 |
| 20260504003957 | 11 | 276 | 0.0 | 4.8 | 0.00 | 0.00 | 0.00 | 45 | 1012.9 |
| 20260504003455 | 11 | 250 | 1.6 | 4.8 | 0.00 | 0.00 | 0.00 | 44 | 1012.8 |
| 20260504003317 | 12 | 272 | 1.6 | 4.8 | 0.00 | 0.00 | 0.00 | 44 | 1012.8 |
| 20260504002814 | 12 | 272 | 3.2 | 6.4 | 0.00 | 0.00 | 0.00 | 44 | 1012.6 |
| 20260504001956 | 12 | 264 | 0.0 | 8.0 | 0.00 | 0.00 | 0.00 | 42 | 1012.5 |
| 20260504001455 | 12 | 295 | 3.2 | 8.0 | 0.00 | 0.00 | 0.00 | 41 | 1012.5 |
| 20260504000956 | 12 | 276 | 3.2 | 6.4 | 0.00 | 0.00 | 0.00 | 41 | 1012.5 |
| 20260504000454 | 13 | 274 | 3.2 | 4.8 | 0.00 | 0.00 | 0.00 | 41 | 1012.5 |
| 20260504000139 | 13 | 255 | 1.6 | 6.4 | 0.00 | 0.00 | 0.00 | 39 | 1012.4 |
| 20260504000100 | 13 | 259 | 3.2 | 4.8 | 0.00 | 0.00 | 0.00 | 39 | 1012.5 |
| 20260503234955 | 13 | 282 | 3.2 | 8.0 | 0.00 | 0.00 | 0.00 | 39 | 1012.4 |
| 20260503234455 | 13 | 279 | 3.2 | 8.0 | 0.00 | 0.00 | 0.00 | 38 | 1012.4 |
| 20260503233955 | 13 | 234 | 4.8 | 8.0 | 0.00 | 0.00 | 0.00 | 38 | 1012.3 |
| 20260503233746 | 13 | 276 | 3.2 | 8.0 | 0.00 | 0.00 | 0.00 | 38 | 1012.2 |
| 20260503233318 | 14 | 292 | 1.6 | 8.0 | 0.00 | 0.00 | 0.00 | 37 | 1012.2 |
| 20260503232454 | 14 | 272 | 3.2 | 6.4 | 0.00 | 0.00 | 0.00 | 36 | 1012.3 |
| 20260503231954 | 14 | 257 | 3.2 | 6.4 | 0.00 | 0.00 | 0.00 | 36 | 1012.2 |
| 20260503231454 | 14 | 247 | 3.2 | 6.4 | 0.00 | 0.00 | 0.00 | 36 | 1012.1 |
| 20260503230954 | 14 | 288 | 3.2 | 16.1 | 0.00 | 0.00 | 0.00 | 36 | 1012.2 |
| 20260503230454 | 14 | 261 | 1.6 | 16.1 | 0.00 | 0.00 | 0.00 | 36 | 1012.2 |
| 20260503230311 | 15 | 312 | 1.6 | 16.1 | 0.00 | 0.00 | 0.00 | 37 | 1012.1 |
| 20260503225453 | 15 | 292 | 8.0 | 22.5 | 0.00 | 0.00 | 0.00 | 36 | 1012.1 |
| 20260503224952 | 15 | 306 | 3.2 | 22.5 | 0.00 | 0.00 | 0.00 | 34 | 1012.1 |
| 20260503224453 | 15 | 220 | 8.0 | 19.3 | 0.00 | 0.00 | 0.00 | 35 | 1012.1 |
| 20260503223952 | 15 | 244 | 6.4 | 14.5 | 0.00 | 0.00 | 0.00 | 33 | 1012.1 |
| 20260503223453 | 15 | 324 | 4.8 | 16.1 | 0.00 | 0.00 | 0.00 | 34 | 1012.1 |
| 20260503222953 | 15 | 244 | 4.8 | 16.1 | 0.00 | 0.00 | 0.00 | 34 | 1012.0 |
| 20260503222453 | 15 | 255 | 1.6 | 9.7 | 0.00 | 0.00 | 0.00 | 36 | 1012.1 |
| 20260503221953 | 15 | 323 | 4.8 | 14.5 | 0.00 | 0.00 | 0.00 | 33 | 1012.1 |
| 20260503221452 | 15 | 290 | 4.8 | 14.5 | 0.00 | 0.00 | 0.00 | 33 | 1012.0 |
| 20260503220953 | -17 | 193 | 4.8 | 6.4 | 0.00 | 0.00 | 0.00 | 1012.1 | |
| 20260503220452 | -17 | 296 | 8.0 | 11.3 | 0.00 | 0.00 | 0.00 | 1012.1 | |
| 20260503215950 | 15 | 296 | 8.0 | 11.3 | 0.00 | 0.00 | 0.00 | 35 | 1012.1 |
| 20260503215451 | 15 | 212 | 3.2 | 8.0 | 0.00 | 0.00 | 0.00 | 35 | 1012.1 |
| 20260503214951 | 16 | 244 | 3.2 | 14.5 | 0.00 | 0.00 | 0.00 | 34 | 1012.1 |
| 20260503214450 | 16 | 290 | 4.8 | 16.1 | 0.00 | 0.00 | 0.00 | 32 | 1012.1 |
| 20260503213952 | 16 | 282 | 6.4 | 17.7 | 0.00 | 0.00 | 0.00 | 31 | 1012.1 |
| 20260503213450 | 16 | 278 | 9.7 | 17.7 | 0.00 | 0.00 | 0.00 | 31 | 1012.1 |
| 20260503212950 | 16 | 206 | 6.4 | 16.1 | 0.00 | 0.00 | 0.00 | 32 | 1012.0 |
| 20260503212449 | 16 | 158 | 3.2 | 16.1 | 0.00 | 0.00 | 0.00 | 31 | 1012.0 |
| 20260503211951 | 16 | 255 | 6.4 | 16.1 | 0.00 | 0.00 | 0.00 | 33 | 1011.9 |
| 20260503211450 | 16 | 213 | 3.2 | 16.1 | 0.00 | 0.00 | 0.00 | 33 | 1012.0 |
| 20260503211307 | 15 | 72 | 3.2 | 17.7 | 0.00 | 0.00 | 0.00 | 34 | 1012.0 |
| 20260503210450 | 15 | 272 | 6.4 | 20.9 | 0.00 | 0.00 | 0.00 | 33 | 1012.0 |
| 20260503205951 | 16 | 245 | 9.7 | 22.5 | 0.00 | 0.00 | 0.00 | 32 | 1012.1 |
| 20260503205451 | 16 | 286 | 4.8 | 22.5 | 0.00 | 0.00 | 0.00 | 32 | 1012.0 |
| 20260503204950 | 16 | 257 | 4.8 | 22.5 | 0.00 | 0.00 | 0.00 | 33 | 1012.1 |
| 20260503204451 | 16 | 27 | 4.8 | 20.9 | 0.00 | 0.00 | 0.00 | 34 | 1012.0 |
| 20260503204301 | 15 | 204 | 3.2 | 11.3 | 0.00 | 0.00 | 0.00 | 35 | 1012.1 |
| 20260503203451 | 15 | 345 | 4.8 | 20.9 | 0.00 | 0.00 | 0.00 | 33 | 1012.0 |
| 20260503202950 | 15 | 244 | 4.8 | 20.9 | 0.00 | 0.00 | 0.00 | 34 | 1012.1 |
| 20260503202450 | 15 | 166 | 1.6 | 9.7 | 0.00 | 0.00 | 0.00 | 34 | 1012.1 |
| 20260503201949 | 15 | 295 | 3.2 | 24.1 | 0.00 | 0.00 | 0.00 | 34 | 1012.2 |
| 20260503201450 | 15 | 286 | 6.4 | 24.1 | 0.00 | 0.00 | 0.00 | 34 | 1012.3 |
| 20260503200949 | 15 | 303 | 6.4 | 22.5 | 0.00 | 0.00 | 0.00 | 33 | 1012.2 |
| 20260503200638 | 15 | 25 | 4.8 | 17.7 | 0.00 | 0.00 | 0.00 | 36 | 1012.4 |
| 20260503200557 | 15 | 293 | 9.7 | 19.3 | 0.00 | 0.00 | 0.00 | 33 | 1012.2 |
| 20260503195449 | 16 | 219 | 8.0 | 17.7 | 0.00 | 0.00 | 0.00 | 35 | 1012.5 |
| 20260503194950 | 16 | 250 | 4.8 | 24.1 | 0.00 | 0.00 | 0.00 | 35 | 1012.4 |
| 20260503194450 | 16 | 235 | 6.4 | 25.7 | 0.00 | 0.00 | 0.00 | 37 | 1012.3 |
| 20260503193950 | 15 | 255 | 6.4 | 25.7 | 0.00 | 0.00 | 0.00 | 33 | 1012.4 |
| 20260503193449 | 16 | 209 | 3.2 | 6.4 | 0.00 | 0.00 | 0.00 | 34 | 1012.5 |
| 20260503192949 | 16 | 209 | 3.2 | 20.9 | 0.00 | 0.00 | 0.00 | 34 | 1012.6 |
| 20260503192448 | 16 | 279 | 6.4 | 20.9 | 0.00 | 0.00 | 0.00 | 36 | 1012.6 |
| 20260503192308 | 15 | 258 | 1.6 | 16.1 | 0.00 | 0.00 | 0.00 | 36 | 1012.6 |
| 20260503191449 | 15 | 283 | 6.4 | 16.1 | 0.00 | 0.00 | 0.00 | 36 | 1012.6 |
| 20260503190949 | 15 | 265 | 6.4 | 9.7 | 0.00 | 0.00 | 0.00 | 35 | 1012.7 |
| 20260503190805 | 15 | 265 | 4.8 | 8.0 | 0.00 | 0.00 | 0.00 | 33 | 1012.7 |
| 20260503185947 | 15 | 245 | 3.2 | 11.3 | 0.00 | 0.00 | 0.00 | 35 | 1012.7 |
| 20260503185802 | 15 | 255 | 6.4 | 11.3 | 0.00 | 0.00 | 0.00 | 35 | 1012.7 |
| 20260503184945 | 15 | 202 | 3.2 | 16.1 | 0.00 | 0.00 | 0.00 | 35 | 1012.7 |
| 20260503184759 | 15 | 180 | 3.2 | 16.1 | 0.00 | 0.00 | 0.00 | 36 | 1012.8 |
| 20260503183945 | 15 | 357 | 3.2 | 11.3 | 0.00 | 0.00 | 0.00 | 37 | 1012.9 |
| 20260503183445 | 15 | 279 | 4.8 | 14.5 | 0.00 | 0.00 | 0.00 | 36 | 1013.0 |
| 20260503182946 | 15 | 87 | 4.8 | 14.5 | 0.00 | 0.00 | 0.00 | 35 | 1012.9 |
| 20260503182806 | 14 | 289 | 4.8 | 19.3 | 0.00 | 0.00 | 0.00 | 39 | 1012.9 |
| 20260503181944 | 14 | 250 | 9.7 | 19.3 | 0.00 | 0.00 | 0.00 | 36 | 1013.0 |
| 20260503181445 | 13 | 274 | 6.4 | 17.7 | 0.00 | 0.00 | 0.00 | 37 | 1013.1 |
| 20260503180946 | 13 | 264 | 6.4 | 20.9 | 0.00 | 0.00 | 0.00 | 34 | 1013.1 |
| 20260503180447 | 14 | 223 | 9.7 | 20.9 | 0.00 | 0.00 | 0.00 | 34 | 1013.1 |
| 20260503175947 | 14 | 264 | 3.2 | 9.7 | 0.00 | 0.00 | 0.00 | 34 | 1013.1 |
| 20260503175445 | 14 | 345 | 3.2 | 17.7 | 0.00 | 0.00 | 0.00 | 34 | 1013.1 |
| 20260503175310 | 14 | 314 | 9.7 | 17.7 | 0.00 | 0.00 | 0.00 | 38 | 1013.2 |
| 20260503174446 | 14 | 230 | 4.8 | 14.5 | 0.00 | 0.00 | 0.00 | 37 | 1013.1 |
| 20260503174315 | 13 | 334 | 1.6 | 11.3 | 0.00 | 0.00 | 0.00 | 36 | 1013.2 |
| 20260503173444 | 13 | 288 | 3.2 | 11.3 | 0.00 | 0.00 | 0.00 | 39 | 1013.3 |
| 20260503172944 | 13 | 317 | 6.4 | 17.7 | 0.00 | 0.00 | 0.00 | 35 | 1013.3 |
| 20260503172809 | 13 | 102 | 3.2 | 17.7 | 0.00 | 0.00 | 0.00 | 38 | 1013.2 |
| 20260503171932 | 13 | 68 | 4.8 | 16.1 | 0.00 | 0.00 | 0.00 | 37 | 1013.4 |
| 20260503171431 | 13 | 219 | 6.4 | 22.5 | 0.00 | 0.00 | 0.00 | 36 | 1013.4 |
| 20260503170932 | 13 | 65 | 6.4 | 22.5 | 0.00 | 0.00 | 0.00 | 38 | 1013.4 |
| 20260503170431 | 13 | 193 | 3.2 | 14.5 | 0.00 | 0.00 | 0.00 | 41 | 1013.4 |
| 20260503150433 | 10 | 41 | 6.4 | 11.3 | 0.00 | 0.00 | 0.00 | 49 | 1014.1 |
| 20260503140235 | 10 | 103 | 1.6 | 9.7 | 0.00 | 0.00 | 0.00 | 50 | 1014.0 |